| time (UTC) | temp C | wind direction | speed KPH | gust KPH | rain 1hr cm | rain 24hr cm | rain mn cm | humidity % | barometer mb |
| 20260506193057 | 16 | 19 | 0.0 | 6.4 | 0.03 | 0.15 | 0.15 | 82 | 1007.2 |
| 20260506191557 | 16 | 113 | 1.6 | 6.4 | 0.03 | 0.15 | 0.15 | 82 | 1007.3 |
| 20260506190058 | 16 | 42 | 1.6 | 8.0 | 0.03 | 0.15 | 0.15 | 81 | 1007.3 |
| 20260506184607 | 16 | 29 | 1.6 | 6.4 | 0.03 | 0.13 | 0.13 | 82 | 1007.3 |
| 20260506183055 | 16 | 303 | 0.0 | 6.4 | 0.03 | 0.13 | 0.13 | 82 | 1007.2 |
| 20260506181554 | 17 | 329 | 0.0 | 3.2 | 0.03 | 0.13 | 0.13 | 81 | 1007.5 |
| 20260506180055 | 17 | 294 | 0.0 | 6.4 | 0.03 | 0.13 | 0.13 | 80 | 1007.6 |
| 20260506174553 | 17 | 5 | 0.0 | 6.4 | 0.00 | 0.10 | 0.10 | 81 | 1007.6 |
| 20260506173105 | 18 | 15 | 0.0 | 8.0 | 0.00 | 0.10 | 0.10 | 80 | 1007.5 |
| 20260506171557 | 18 | 341 | 0.0 | 3.2 | 0.05 | 0.10 | 0.10 | 82 | 1007.3 |
| 20260506170058 | 18 | 342 | 0.0 | 3.2 | 0.05 | 0.10 | 0.10 | 84 | 1007.7 |
| 20260506164603 | 17 | 342 | 0.0 | 4.8 | 0.10 | 0.10 | 0.10 | 83 | 1008.0 |
| 20260506163044 | 17 | 338 | 0.0 | 4.8 | 0.10 | 0.10 | 0.10 | 82 | 1008.5 |
| 20260506161541 | 17 | 328 | 0.0 | 3.2 | 0.05 | 0.05 | 0.05 | 80 | 1008.8 |
| 20260506160047 | 17 | 328 | 0.0 | 3.2 | 0.03 | 0.03 | 0.03 | 77 | 1009.2 |
| 20260506154548 | 18 | 310 | 0.0 | 4.8 | 0.00 | 0.00 | 0.00 | 74 | 1009.3 |
| 20260506153038 | 19 | 319 | 0.0 | 6.4 | 0.00 | 0.00 | 0.00 | 70 | 1009.0 |
| 20260506151537 | 20 | 331 | 0.0 | 6.4 | 0.00 | 0.00 | 0.00 | 71 | 1009.1 |
| 20260506150037 | 20 | 318 | 0.0 | 4.8 | 0.00 | 0.00 | 0.00 | 67 | 1009.0 |
| 20260506144535 | 20 | 57 | 1.6 | 9.7 | 0.00 | 0.00 | 0.00 | 65 | 1009.3 |
| 20260506143036 | 20 | 296 | 1.6 | 8.0 | 0.00 | 0.00 | 0.00 | 64 | 1009.3 |
| 20260506141534 | 20 | 305 | 1.6 | 6.4 | 0.00 | 0.00 | 0.00 | 67 | 1009.4 |
| 20260506140029 | 20 | 5 | 1.6 | 12.9 | 0.00 | 0.00 | 0.00 | 67 | 1009.2 |
| 20260506134527 | 20 | 20 | 0.0 | 6.4 | 0.00 | 0.00 | 0.00 | 68 | 1009.2 |
| 20260506133027 | 20 | 321 | 1.6 | 11.3 | 0.00 | 0.00 | 0.00 | 67 | 1009.3 |
| 20260506131532 | 20 | 20 | 1.6 | 8.0 | 0.00 | 0.00 | 0.00 | 67 | 1009.4 |
| 20260506130023 | 19 | 315 | 1.6 | 9.7 | 0.00 | 0.00 | 0.00 | 69 | 1009.2 |
| 20260506124526 | 19 | 5 | 0.0 | 8.0 | 0.00 | 0.00 | 0.00 | 70 | 1009.3 |
| 20260506123029 | 18 | 54 | 1.6 | 8.0 | 0.00 | 0.00 | 0.00 | 72 | 1009.1 |
| 20260506121520 | 18 | 308 | 1.6 | 8.0 | 0.00 | 0.00 | 0.00 | 71 | 1009.4 |
| 20260506120022 | 18 | 339 | 0.0 | 6.4 | 0.00 | 0.00 | 0.00 | 72 | 1009.3 |
| 20260506114517 | 17 | 347 | 1.6 | 6.4 | 0.00 | 0.00 | 0.00 | 72 | 1009.6 |
| 20260506113016 | 17 | 30 | 1.6 | 6.4 | 0.00 | 0.00 | 0.00 | 74 | 1009.6 |
| 20260506111515 | 16 | 9 | 0.0 | 4.8 | 0.00 | 0.00 | 0.00 | 77 | 1009.6 |
| 20260506110012 | 16 | 19 | 0.0 | 3.2 | 0.00 | 0.00 | 0.00 | 77 | 1009.4 |
| 20260506104510 | 16 | 30 | 0.0 | 4.8 | 0.00 | 0.00 | 0.00 | 78 | 1009.4 |
| 20260506103023 | 15 | 31 | 0.0 | 0.0 | 0.00 | 0.00 | 0.00 | 78 | 1009.3 |
| 20260506101506 | 16 | 31 | 0.0 | 0.0 | 0.00 | 0.00 | 0.00 | 77 | 1009.5 |
| 20260506100006 | 16 | 31 | 0.0 | 6.4 | 0.00 | 0.00 | 0.00 | 77 | 1009.2 |
| 20260506094513 | 16 | 9 | 0.0 | 4.8 | 0.00 | 0.00 | 0.00 | 77 | 1009.2 |
| 20260506093005 | 16 | 15 | 0.0 | 6.4 | 0.00 | 0.00 | 0.00 | 78 | 1009.1 |
| 20260506091504 | 16 | 5 | 1.6 | 4.8 | 0.00 | 0.00 | 0.00 | 78 | 1009.2 |
| 20260506090002 | 16 | 31 | 0.0 | 1.6 | 0.00 | 0.00 | 0.00 | 77 | 1009.4 |
| 20260506084600 | 16 | 325 | 0.0 | 4.8 | 0.00 | 0.00 | 0.00 | 77 | 1009.4 |
| 20260506083100 | 16 | 329 | 0.0 | 3.2 | 0.00 | 0.00 | 0.00 | 77 | 1009.5 |
| 20260506081602 | 16 | 282 | 0.0 | 3.2 | 0.00 | 0.00 | 0.00 | 77 | 1009.6 |
| 20260506080116 | 16 | 282 | 0.0 | 4.8 | 0.00 | 0.00 | 0.00 | 76 | 1009.5 |
| 20260506073100 | 16 | 295 | 0.0 | 1.6 | 0.00 | 0.00 | 0.00 | 76 | 1009.4 |
| 20260506071554 | 16 | 300 | 0.0 | 3.2 | 0.00 | 0.00 | 0.00 | 76 | 1009.6 |
| 20260506070113 | 16 | 300 | 0.0 | 3.2 | 0.00 | 0.00 | 0.00 | 75 | 1009.7 |
| 20260506061545 | 17 | 286 | 0.0 | 3.2 | 0.00 | 0.00 | 0.00 | 73 | 1009.9 |
| 20260506044550 | 18 | 32 | 1.6 | 8.0 | 0.00 | 0.00 | 0.00 | 68 | 1010.4 |
| 20260506043034 | 18 | 27 | 0.0 | 4.8 | 0.00 | 0.00 | 0.00 | 68 | 1010.4 |
| 20260506041533 | 18 | 20 | 0.0 | 3.2 | 0.00 | 0.00 | 0.00 | 67 | 1010.4 |
| 20260506040028 | 18 | 20 | 0.0 | 4.8 | 0.00 | 0.00 | 0.00 | 66 | 1010.3 |
| 20260506034529 | 19 | 19 | 0.0 | 9.7 | 0.00 | 0.00 | 0.00 | 64 | 1010.3 |
| 20260506033028 | 19 | 44 | 0.0 | 8.0 | 0.00 | 0.00 | 0.00 | 64 | 1010.3 |
| 20260506031529 | 19 | 24 | 0.0 | 9.7 | 0.00 | 0.00 | 0.00 | 64 | 1010.2 |
| 20260506030027 | 19 | 25 | 0.0 | 3.2 | 0.00 | 0.00 | 0.00 | 63 | 1010.3 |
| 20260506024533 | 19 | 333 | 0.0 | 3.2 | 0.00 | 0.00 | 0.00 | 62 | 1010.3 |
| 20260506023027 | 20 | 9 | 0.0 | 3.2 | 0.00 | 0.00 | 0.00 | 61 | 1010.4 |
| 20260506021526 | 20 | 22 | 1.6 | 8.0 | 0.00 | 0.00 | 0.00 | 60 | 1010.1 |
| 20260506020025 | 20 | 5 | 1.6 | 4.8 | 0.00 | 0.00 | 0.00 | 60 | 1010.2 |
| 20260506014526 | 20 | 65 | 0.0 | 4.8 | 0.00 | 0.00 | 0.00 | 59 | 1010.1 |
| 20260506013025 | 21 | 196 | 1.6 | 12.9 | 0.00 | 0.00 | 0.00 | 57 | 1009.9 |
| 20260506011526 | 21 | 44 | 0.0 | 6.4 | 0.00 | 0.00 | 0.00 | 56 | 1009.8 |
| 20260506010023 | 21 | 24 | 1.6 | 8.0 | 0.00 | 0.00 | 0.00 | 54 | 1009.6 |
| 20260506004522 | 21 | 24 | 0.0 | 4.8 | 0.00 | 0.00 | 0.00 | 50 | 1009.5 |
| 20260506003023 | 22 | 24 | 0.0 | 3.2 | 0.00 | 0.00 | 0.00 | 48 | 1009.2 |
| 20260506001521 | 23 | 348 | 0.0 | 8.0 | 0.00 | 0.00 | 0.00 | 44 | 1009.0 |
| 20260506000020 | 23 | 36 | 0.0 | 9.7 | 0.00 | 0.00 | 0.00 | 43 | 1008.8 |
| 20260505234544 | 23 | 19 | 0.0 | 6.4 | 0.00 | 0.00 | 0.00 | 43 | 1008.9 |
| 20260505233021 | 24 | 319 | 1.6 | 9.7 | 0.00 | 0.00 | 0.00 | 43 | 1008.7 |
| 20260505231519 | 25 | 26 | 0.0 | 9.7 | 0.00 | 0.00 | 0.00 | 41 | 1008.5 |
| 20260505230018 | 25 | 55 | 0.0 | 12.9 | 0.00 | 0.00 | 0.00 | 38 | 1008.3 |
| 20260505224526 | 26 | 346 | 1.6 | 6.4 | 0.00 | 0.00 | 0.00 | 35 | 1008.2 |
| 20260505223016 | 26 | 223 | 0.0 | 0.0 | 0.00 | 0.00 | 0.00 | 33 | 1008.0 |
| 20260505221515 | 26 | 321 | 0.0 | 0.0 | 0.00 | 0.00 | 0.00 | 32 | 1008.1 |
| 20260505220014 | 27 | 301 | 0.0 | 0.0 | 0.00 | 0.00 | 0.00 | 30 | 1007.9 |
| 20260505214520 | 27 | 205 | 0.0 | 0.0 | 0.00 | 0.00 | 0.00 | 28 | 1007.8 |
| 20260505213014 | 28 | 347 | 1.6 | 9.7 | 0.00 | 0.00 | 0.00 | 31 | 1007.8 |
| 20260505211513 | 28 | 17 | 3.2 | 12.9 | 0.00 | 0.00 | 0.00 | 27 | 1007.9 |
| 20260505210014 | 28 | 259 | 3.2 | 12.9 | 0.00 | 0.00 | 0.00 | 29 | 1007.5 |
| 20260505204522 | 28 | 193 | 4.8 | 17.7 | 0.00 | 0.00 | 0.00 | 31 | 1007.4 |
| 20260505203009 | 28 | 348 | 1.6 | 14.5 | 0.00 | 0.00 | 0.00 | 32 | 1007.4 |
| 20260505201506 | 28 | 171 | 3.2 | 8.0 | 0.00 | 0.00 | 0.00 | 34 | 1007.5 |
| 20260505200012 | 28 | 146 | 1.6 | 9.7 | 0.00 | 0.00 | 0.00 | 35 | 1007.5 |
| 20260505194504 | 28 | 75 | 4.8 | 17.7 | 0.00 | 0.00 | 0.00 | 31 | 1007.7 |